Regional Weather Roundup
Issued by NWS Wakefield, VA

Home | Current Version | Previous Version | Graphics & Text | Print | Product List | Glossary On
Versions: 1 2 3 4 5 6 7 8 9 10 11 12 13 14 15 16 17 18 19 20 21 22 23 24 25 26 27 28 29 30 31 32 33 34 35 36 37 38 39 40 41 42 43 44 45 46 47 48 49 50
098
ASUS41 KAKQ 290215
RWRAKQ

REGIONAL WEATHER ROUNDUP
NATIONAL WEATHER SERVICE WAKEFIELD VA
1000 PM EDT WED JUN 28 2017

Note: "fair" indicates few or no clouds below 12,000 feet with no
significant weather and/or obstructions to visibility. * = Denotes
station may not report precipitation (e.g., rain,snow,etc.),
thunder or fog.

VAZ042-051-052>054-056-290300-
NORTHERN VIRGINIA

CITY           SKY/WX    TMP DP  RH WIND       PRES   REMARKS
WASH NATIONAL  MOCLDY    74  57  55 S12       30.15R
DULLES         PTCLDY    71  52  50 S7        30.15R
FORT BELVOIR   CLEAR     66  56  71 CALM      30.15R
QUANTICO       CLEAR     75  59  57 SW10      30.16R
FREDERICKSBRG* CLEAR     68  58  69 S5        30.16R
STAFFORD*      CLEAR     60  59  96 CALM      30.20R
WARRENTON      CLEAR     70  51  50 S5        30.15S
CULPEPER*      CLEAR     64  57  78 CALM      30.16S
MANASSAS*      CLEAR     66  56  70 CALM      30.16R
LEESBURG*      CLEAR     73  55  53 S7        30.15R
WINCHESTER     PTCLDY    66  52  59 S5        30.14R
FRONT ROYAL*   CLEAR     70  52  52 CALM      30.13R
LURAY*         CLEAR     68  55  64 SW5       30.15R
$$

VAZ048-049-060>072-079>083-290300-
CENTRAL AND SOUTH CENTRAL VIRGINIA

CITY           SKY/WX    TMP DP  RH WIND       PRES   REMARKS
RICHMOND       PTCLDY    69  55  60 S7        30.18R
CHESTERFIELD*  NOT AVBL
PETERSBURG*    CLEAR     59  56  89 CALM      30.19R
HANOVER        CLEAR     64  57  78 CALM      30.19R
TAPPAHANNOCK*  CLEAR     67  46  45 SE3       30.19R
QUINTON*       FAIR      68  59  73 CALM      30.18R
CHARLOTTSVILLE CLEAR     70  55  59 S5        30.17R
GORDONSVILLE*  CLEAR     64  57  79 CALM      30.16R
ORANGE*        CLEAR     63  54  72 CALM      30.16S
LOUISA*        CLEAR     63  57  82 SE3       30.16S
BUMPASS*       FAIR      63  57  81 S6        30.17R
FARMVILLE*     CLEAR     67  53  61 CALM      30.17R
CREWE*         FAIR      62  58  86 CALM      30.18R
FORT PICKETT*  FAIR      66  51  58 CALM      30.18R
CHASE CITY*    FAIR      64  60  89 CALM      30.18R
CLARKSVILLE*   FAIR      63  61  94 CALM      30.18R
SOUTH HILL*    CLEAR     63  61  94 CALM      30.24R
LAWRENCEVILLE* FAIR      65  58  78 CALM      30.18R
EMPORIA*       CLEAR     63  55  77 CALM      30.20R
$$

VAZ088>098-290300-
SOUTHEAST VIRGINIA

CITY           SKY/WX    TMP DP  RH WIND       PRES   REMARKS
NORFOLK        CLEAR     71  56  58 SE6       30.19R
VIRGINIA BEACH PTCLDY    68  54  60 SE6       30.19R
NORFOLK NAVAL  PTCLDY    70  40  33 SE6       30.21R
WEST POINT*    CLEAR     67  54  63 E6        30.20R
SALUDA*        FAIR      69  57  67 S6        30.18R
NEWPORT NEWS   CLEAR     70  51  51 SE6       30.19R
LANGLEY AFB    CLEAR     71  54  54 S5        30.19R
FORT EUSTIS    CLEAR     70  53  54 SE6       30.16R
WILLIAMSBURG*  CLEAR     73  55  53 CALM      30.20R
HR EXEC AP*    FAIR      63  52  67 SE3       30.18R
FRANKLIN*      CLEAR     68  55  64 E3        30.20R
US460-WAKEFLD  CLEAR     70  56  61 VRB3      30.19R
$$

VAZ020-022-025-037-045-290300-
WEST CENTRAL AND SOUTHWEST VIRGINIA

CITY           SKY/WX    TMP DP  RH WIND       PRES   REMARKS
STAUNTON*      CLEAR     66  52  60 S6        30.19R
WAYNESBORO*    CLEAR     65  54  67 CALM      30.19R
HOT SPRINGS VA CLEAR     61  45  55 S10       30.27R
LYNCHBURG      CLEAR     64  55  72 SW5       30.19R
DANVILLE       CLEAR     71  57  61 S3        30.18R
SOUTH BOSTON*  FAIR      65  60  85 CALM      30.18R
MARTINSVILLE   PTCLDY    63  60  88 CALM      30.21R
ROANOKE        PTCLDY    72  57  59 SE5       30.20R
BLACKSBURG     MOCLDY    69  56  61 S5        30.25R
DUBLIN*        CLEAR     69  51  53 S3        30.23R
MARION*        MOCLDY    70  52  52 S6        30.24R
HILLSVILLE*    PTCLDY    65  51  60 CALM      30.24R
RICHLANDS*     FAIR      66  52  61 SE5       30.21R
WISE*          CLEAR     68  50  52 CALM      30.20S
ABINGDON*      CLEAR     73  57  57 S5        30.18R
$$

MDZ021>025-VAZ099-100-290300-
SOUTHERN MARYLAND AND THE DELMARVA PENINSULA

CITY           SKY/WX    TMP DP  RH WIND       PRES   REMARKS
PATUXENT RIVER PTCLDY    68  54  60 S5        30.17R
BAY BRIDGE APT PTCLDY    73  57  56 S9        30.15S
LEONARDTOWN    CLEAR     68  54  60 S3        30.19R
DOVER          PTCLDY    68  60  76 S8        30.15R
GEORGETOWN       N/A     67  57  70 S7        30.18R
EASTON         PTCLDY    71  54  54 SW6       30.20R
CAMBRIDGE      CLEAR     66  57  72 S3        30.17R
SALISBURY      CLEAR     64  57  78 S6        30.18R
OCEAN CITY     CLEAR     69  59  70 SW10      30.19R
WALLOPS ISLAND CLEAR     65  60  84 S7        30.19R
ACCOMACK*      CLEAR     66  57  72 S3        30.19R
$$

NCZ012>017-030>032-290300-
NORTH CENTRAL AND EASTERN NORTH CAROLINA

CITY           SKY/WX    TMP DP  RH WIND       PRES   REMARKS
ROANOKE RAPIDS FAIR      63  59  88 CALM      30.19R
RALEIGH        PTCLDY    68  57  68 CALM      30.19R
ELIZABETH CITY CLEAR     70  62  76 SE7       30.20R
AHOSKIE*         N/A     66  60  81 CALM      30.19R
EDENTON*       CLEAR     74  63  69 SE8       30.20R
CURRITUCK*     CLEAR     68  60  75 CALM      30.21R
KILL DEVIL HLS CLEAR     70  58  66 E7        30.19S
MANTEO         CLEAR     69  61  74 SE8       30.21R
CAPE HATTERAS  NOT AVBL
TARBORO*       NOT AVBL
GOLDSBORO      CLEAR     70  63  78 CALM      30.17R
WASHINGTON     CLEAR    N/A N/A N/A CALM      30.19S
GREENVILLE     CLEAR     73  61  64 SE3       30.20R
NEW BERN       CLEAR     69  63  81 S3        30.20R
WILMINGTON     CLEAR     74  59  59 E5        30.19R
$$

VAZ048-290300-
ELSEWHERE

CITY           SKY/WX    TMP DP  RH WIND       PRES   REMARKS
HARRISBURG PA  MOCLDY    72  49  44 SW10      30.12R
BALTIMORE      MOCLDY    70  57  63 S6        30.14R
ANNAPOLIS      PTCLDY    70  57  63 S9G20     30.15R
ANDREWS AFB    CLEAR     69  55  60 S10       30.15R
PHILADELPHIA   MOCLDY    73  52  47 S10       30.15R
HENDERSON NC   CLEAR     67  55  67 S3        30.19R
GREENSBORO     PTCLDY    71  60  68 S6        30.18R
ROCKY MOUNT    CLEAR     66  62  87 CALM      30.18R
$$

VAZ100-290300-
MARINE

STATION/POSITION TIME  TEMP    WIND        PRES    WAVE   SWELL
                       AIR SEA DIR/SP/G            HT/PER HT/PER
                 (UTC) (F)     (DEG/KT/KT) (MB)    (FT/S) (FT/S)
BRANDYWINE LGT   0142   70     200/ 21/ 22 1021.7R
CAPE MAY NJ      0148   68 71  180/  8/ 12 1021.5R
LEWES DE         0148   69 71  200/  5/  7 1021.6R
15NM E FENWICK I 0150   70 70  200/ 12/ 14 1022.6R   2/ 3   2/ 8
OCEAN-CITY-INLET 0148   69 72  230/  9/ 11 1022.5R
WACHAPREAGUE VA  0148   70 79  190/  5/  7 1022.2R
THOMAS POINT MD  0200   74 77  190/ 23/ 24   N/A
GOOSES REEF MD   0150   74     180/ 16/ 17 1022.2R
COVE POINT MD    0148   72     200/ 11/ 14 1022.2R
SOLOMONS ISLAND  0148   72 78  180/  6/  9   N/A
BISHOPS HEAD MD  0148   75 79  180/ 11/ 12 1021.8R
PINEY POINT MD   0142          190/ 12/ 14   N/A
POTOMAC MD       0150   75     200/ 12/ 14 1020.9R
CAMBRIDGE MD     0148   70 81              1022.2R
LEWISETTA VA     0148   72 79  190/  6/  7 1021.7R
RAPPAHANNOCK LGT 0142          170/ 12/ 13 1022.7R
STINGRAY PT      0150   74     200/ 14/ 16 1021.6R
YORK RVR RNG VA  0148   74     180/ 13/ 15 1022.4R
YORKTOWN VA      0148   72 79  160/  7/  9 1021.8R
JAMESTOWN VA     0150   74     150/ 10/ 12   N/A
DOMINION TERM VA 0148   73     140/ 10/ 12 1022.3R
KIPTOPEKE VA     0142      75  160/  9/ 11   N/A
CHES BAY BRIDGE  0148   72 77  170/ 10/ 13 1022.4R
CAPE HENRY VA    0148   71     150/  7/ 11   N/A
WILLOUBY STN VA  0148   72     150/ 11/ 12 1022.1R
S CRANEY ISL VA  0148   73     150/ 11/ 12 1022.1R
CAPE HENRY BUOY  0130      72                N/A     2/ 5
1ST LANDING BUOY 0150   73                 1022.5R
CAPE CHARLES BUO 0151      70                N/A     2/ 9
64NM E OF VA BCH 0150   71 74  120/  8/ 10 1023.0R   2/ 8   2/ 8
DUCK PIER NC     0148   72 74  120/ 13/ 14 1022.1R
44100 DUCK FRF   0105      73                N/A     2/ 5
OREGON INLET NC  0142   72 76   90/  6/ 11 1022.4R
HATTERAS NC      0148   73 78   80/  5/  6 1022.5R
DIAMOND SHLS NC  0150   79 83  100/  8/ 10 1022.1R   2/ 7   2/ 7
CAPE LOOKOUT NC  0200   79     110/  9/ 10 1022.0R
$$




USA.gov is the U.S. government's official web portal to all federal, state and local government web resources and services.